Location: Mount Cross
(36.6390°N, 79.4878°W)
Time: 00:35:51
(UTC+00:00)

Vanguard 2 Rocket - Pass Details

Date: 28 March 2023
Orbit: 554 x 3314 km, 32.9° (Epoch: 08 June)

Event Time Altitude Azimuth Distance (km) Brightness Sun altitude
Rises 02:47:36 0° 271° (W) 3,976 10.8 -36.4°
Reaches altitude 10° 02:49:51 10° 269° (W) 3,273 10.2 -36.8°
Enters shadow 02:57:38 68° 210° (SSW) 1,927 8.2 -38.0°
